Weather Roundup
Issued by NWS Chicago, IL

Home | Current Version | Previous Version | Text Only | Print | Product List | Glossary Off
Versions: 1 2 3 4 5 6 7 8 9 10 11 12 13 14 15 16 17 18 19 20 21 22 23 24 25 26 27 28 29 30 31 32 33 34 35 36 37 38 39 40 41 42 43 44 45 46 47 48 49 50

000
NZUS59 KLOT 301206
HRRLOT

CHICAGO AREA WEATHER ROUNDUP
NATIONAL WEATHER SERVICE CHICAGO/ROMEOVILLE IL
700 AM CDT THU JUL 30 2015

NOTE: "FAIR" INDICATES FEW OR NO CLOUDS BELOW 12,000 FEET WITH NO
SIGNIFICANT WEATHER AND/OR OBSTRUCTIONS TO VISIBILITY.

* THESE STATIONS ARE NOT UNDER NWS QUALITY CONTROL. THEY ALSO MAY NOT
  REPORT WEATHER SUCH AS PRECIPITATION OR FOG.

ILZ005-006-012>014-019>023-301300-
NORTHEAST ILLINOIS

CITY           SKY/WX    TMP DP  RH WIND       PRES   REMARKS
OHARE          SUNNY     67  59  75 W8        30.05R
6HR MIN TEMP:  65; 6HR MAX TEMP:  70;

MIDWAY         SUNNY     71  58  63 W8        30.05R
6HR MIN TEMP:  69; 6HR MAX TEMP:  74;

AURORA         SUNNY     62  58  86 W3        30.07R
6HR MIN TEMP:  58; 6HR MAX TEMP:  64;

WAUKEGAN       SUNNY     67  58  72 SW3       30.02R
6HR MIN TEMP:  64; 6HR MAX TEMP:  70;

DUPAGE AIRPORT SUNNY     65  58  78 W6        30.06R
6HR MIN TEMP:  63; 6HR MAX TEMP:  67;

WHEELING       SUNNY     68  57  68 W5        30.05S
6HR MIN TEMP:  67; 6HR MAX TEMP:  72;

NORTHERLY IS     N/A     71  57  61 SW9         N/A
$$

WIZ051-052-058>065-066-070>072-301300-
SOUTHEAST WISCONSIN

CITY           SKY/WX    TMP DP  RH WIND       PRES   REMARKS
MILWAUKEE      SUNNY     69  55  60 W8        30.01R
6HR MIN TEMP:  67; 6HR MAX TEMP:  72;

KENOSHA*       SUNNY     65  57  75 W7        30.03R
RACINE*        SUNNY     66  56  70 W8        30.03R
$$

INZ001>003-010>013-019-020-301300-
NORTHWEST INDIANA

CITY           SKY/WX    TMP DP  RH WIND       PRES   REMARKS
GARY*          SUNNY     70  61  73 W12       30.06R
MICHIGAN CITY* NOT AVBL
RENSSELAER*    NOT AVBL
$$

LMZ740>746-301300-
SOUTHERN LAKE MICHIGAN

STATION/POSITION TIME  SKY/WX   TEMP WIND        PRES    VSBY
                                AIR  DIR/SP/G
                 (UTC)          (F)  (DEG/KT/KT) (MB)    (MI)
HARRISON CRIB    1100            71  270/ 15/ 17   N/A
BURNHAM HARBOR   1100            71  280/  8/ 12   N/A
CALUMET HARBOR   NOT AVBL
BURNS HARBOR     1100            72  280/ 14/ 18 1017.3R
MICHIGAN CITY    1100            73  260/ 19/ 23   N/A
$$

ABBREVIATIONS USED IN REMARKS
   TC - TEMPERATURE IN CELSIUS
  WCI - WIND CHILL INDEX
   HX - HEAT INDEX
  VSB - VISIBILITY
$$


USA.gov is the U.S. government's official web portal to all federal, state and local government web resources and services.